Flag for U.S.A. Weather past 2 weeks in Springfield, Massachusetts, U.S.A.

Now
67 °F

Clear.


Feels Like: 67 °F
Forecast: 52 / 80 °F
Wind: 3 mph from Northeast

Location: Barnes Municipal Airport

Current Time: Sep 5, 2015 at 12:14:59 AM

Latest Report: Sep 4, 2015 at 10:53 PM


Visibility: 10 mi

Pressure: 30.24 "Hg

Humidity: 71%

Dew point: 57 °F

Location of SpringfieldLocation

Historic Weather in Springfield — Graph

°F

Springfield temperature yesterday

Maximum temperature yesterday: 80 °F (at 1:53 PM)
Minimum temperature yesterday: 67 °F (at 10:53 PM)
Average temperature yesterday: 73 °F

Past Weeks' High & Low Weather Summary

 TemperatureHumidityPressure
High90 °F (Sep 3, 2:53 PM)97% (Aug 22, 10:53 PM)30.24 "Hg (Aug 22, 10:53 PM)
Low52 °F (Aug 29, 5:53 AM)30% (Sep 1, 4:53 PM)29.78 "Hg (Aug 25, 3:53 PM)
Average71 °F73%30.00 "Hg
* Reported Aug 20 10:53 PM — Sep 4 10:53 PM, Springfield, Weather by CustomWeather, © 2015

Note: Actual official high and low records may vary slightly from our data, if they occured in-between our weather recording intervals... More about our weather records

Advertising

Springfield weather history for previous 24 hours

 ConditionsComfort  
Time TempWeatherWind HumidityBarometerVisibility
10:53 PM
Fri, Sep 4
67 °FClear.3 mph71%30.24 "Hg10 mi
9:53 PM69 °FClear.No wind66%30.23 "Hg10 mi
8:53 PM71 °FClear.6 mph61%30.21 "Hg10 mi
7:53 PM73 °FPartly sunny.5 mph55%30.18 "Hg10 mi
6:53 PM76 °FSunny.3 mph52%30.16 "Hg10 mi
5:53 PM78 °FScattered clouds.12 mph48%30.15 "Hg10 mi
4:53 PM79 °FPartly sunny.7 mph47%30.14 "Hg10 mi
3:53 PM79 °FPartly sunny.7 mph45%30.14 "Hg10 mi
2:53 PM78 °FScattered clouds.5 mph46%30.15 "Hg10 mi
1:53 PM80 °FPassing clouds.14 mph45%30.15 "Hg10 mi
12:53 PM77 °FMostly cloudy.7 mph50%30.15 "Hg10 mi
11:53 AM77 °FSunny.10 mph48%30.14 "Hg10 mi
10:53 AM76 °FScattered clouds.8 mph50%30.14 "Hg10 mi
9:53 AM73 °FPartly sunny.8 mph53%30.13 "Hg10 mi
8:53 AM72 °FOvercast.7 mph55%30.12 "Hg10 mi
7:53 AM70 °FOvercast.9 mph76%30.08 "Hg10 mi
6:53 AM70 °FOvercast.8 mph73%30.04 "Hg10 mi
5:53 AM71 °FOvercast.10 mph73%30.01 "Hg10 mi
4:53 AM69 °FPassing clouds.7 mph81%29.98 "Hg10 mi
3:53 AM71 °FClear.10 mph76%29.97 "Hg10 mi
2:53 AM69 °FClear.7 mph87%29.95 "Hg10 mi
1:53 AM70 °FClear.7 mph87%29.94 "Hg10 mi
12:53 AM71 °FClear.5 mph84%29.94 "Hg10 mi
Weather by CustomWeather, © 2015

See weather overviewHow to use our weather pages